Location: Ashtead
(51.3000°N, 0.3000°W)
Time: 15:39:42
(UTC+00:00)

CZ-2C R/B - Pass Details

Date: 06 May 2025
Orbit: 781 x 868 km, 98.4° (Epoch: 12 May)

Event Time Altitude Azimuth Distance (km) Brightness Sun altitude
Exits shadow 01:30:22 37° 204° (SSW) 1,246 3.0 -19.2°
Maximum altitude 01:32:12 54° 260° (W) 970 2.8 -19.1°
Drops below altitude 10° 01:37:20 10° 338° (NNW) 2,370 5.6 -18.7°
Sets 01:39:43 0° 343° (NNW) 3,296 6.5 -18.6°
